Weather Service Report


592 
ASUS46 KPQR 030010
RWROR 

OREGON REGIONAL WEATHER ROUNDUP
NATIONAL WEATHER SERVICE PORTLAND OR
500 PM PDT THU JUL 02 2015

NOTE: "FAIR" INDICATES FEW OR NO CLOUDS BELOW 12,000 FEET WITH
NO SIGNIFICANT WEATHER AND/OR OBSTRUCTIONS TO VISIBILITY.

ORZ001>013-030100-
NORTHWEST OREGON

  
CITY           SKY/WX    TMP DP  RH WIND       PRES   REMARKS
ASTORIA        SUNNY     72  56  57 NW10      30.00F                  
6HR MIN TEMP:  71; 6HR MAX TEMP:  76;                                

NEWPORT        SUNNY     63  55  77 N17       30.01F HAZE             
PORTLAND       MOSUNNY   96  54  24 NW16      29.89F HX  94           
6HR MIN TEMP:  80; 6HR MAX TEMP:  97;                                

VANCOUVER WA   SUNNY     95  53  24 NW12G21   29.88F HX  92           
6HR MIN TEMP:  80; 6HR MAX TEMP:  97;                                

SCAPPOOSE      SUNNY     96  55  25 N14G22    29.89F HX  94           
6HR MIN TEMP:  86; 6HR MAX TEMP:  98;                                

HILLSBORO      SUNNY     96  51  21 NW15      29.89F HX  93           
6HR MIN TEMP:  83; 6HR MAX TEMP:  97;                                

AURORA         SUNNY     97  54  23 N7        29.90F HX  95           
6HR MIN TEMP:  83; 6HR MAX TEMP:  98;                                

MCMINNVILLE    SUNNY     99  51  19 NE9       29.90F HX  96           
6HR MIN TEMP:  83; 6HR MAX TEMP: 100;                                

SALEM          SUNNY     99  51  19 NE12      29.88F HX  96           
6HR MIN TEMP:  84; 6HR MAX TEMP:  99;                                

CORVALLIS      SUNNY    100  54  20 NE10G18   29.90F HX  98           
EUGENE         MOSUNNY  100  37  11 N13G21    29.90F HX  95           
6HR MIN TEMP:  85; 6HR MAX TEMP: 101;                                

$$

ORZ021-028-030100-
SOUTHWEST OREGON

  
CITY           SKY/WX    TMP DP  RH WIND       PRES   REMARKS
NORTH BEND     SUNNY     64  57  77 N24G31    29.96S                  
6HR MIN TEMP:  61; 6HR MAX TEMP:  66;                                

BROOKINGS      MOSUNNY   64  61  90 CALM      29.94S                  
ROSEBURG       SUNNY    102  46  15 NE13      29.87F HX  98           
6HR MIN TEMP:  85; 6HR MAX TEMP: 102;                                

SEXTON SUMMIT  SUNNY     88  54  31 VRB5      30.08F                  
6HR MIN TEMP:  79; 6HR MAX TEMP:  90;                                

MEDFORD        MOSUNNY  106  50  15 W9G20     29.83F HX 103           
6HR MIN TEMP:  91; 6HR MAX TEMP: 107;                                

$$

ORZ014>016-041-030100-
COLUMBIA GORGE

  
CITY           SKY/WX    TMP DP  RH WIND       PRES   REMARKS
TROUTDALE      SUNNY     98  53  22 VRB6      29.86F HX  96           
6HR MIN TEMP:  81; 6HR MAX TEMP:  99;                                

THE DALLES     SUNNY    104  41  11 W13       29.80F HX  99           
6HR MIN TEMP:  89; 6HR MAX TEMP: 106;                                

$$

ORZ029>031-041-044-049-050-061>064-502-503-505>511-030100-
EASTERN OREGON

  
CITY           SKY/WX    TMP DP  RH WIND       PRES   REMARKS
REDMOND        SUNNY    100  47  16 N14G20    29.97F HX  96           
6HR MIN TEMP:  87; 6HR MAX TEMP: 100;                                

BEND             N/A    N/A N/A N/A MISG        N/A                   
PRINEVILLE     SUNNY     99  45  15 NW13G23   29.98F HX  94           
KLAMATH FALLS  MOSUNNY   97  48  18 N16       30.03F HX  93           
6HR MIN TEMP:  89; 6HR MAX TEMP:  99;                                

LAKEVIEW       MOSUNNY   99  43  14 NW7       30.04F HX  94           
HERMISTON      SUNNY    104  44  13 VRB5      29.82F HX  99           
6HR MIN TEMP:  90; 6HR MAX TEMP: 105;                                

PENDLETON      SUNNY    102  36  10 VRB7      29.87F HX  96           
6HR MIN TEMP:  92; 6HR MAX TEMP: 104;                                

JOHN DAY       SUNNY     98  42  14 CALM      30.00F HX  94           
MEACHAM        SUNNY     90  34  13 CALM      30.06F                  
6HR MIN TEMP:  86; 6HR MAX TEMP:  92;                                

LA GRANDE      SUNNY     97  39  13 N8        29.96F HX  92           
6HR MIN TEMP:  82; 6HR MAX TEMP:  99;                                

BAKER CITY     SUNNY     94  42  16 N8        30.00F HX  90           
6HR MIN TEMP:  84; 6HR MAX TEMP:  97;                                

BURNS          SUNNY     98  38  12 VRB6      30.00F HX  93           
6HR MIN TEMP:  92; 6HR MAX TEMP: 101;                                

ROME             N/A    105  33   8 N12       29.95F HX  98           
6HR MIN TEMP:  96; 6HR MAX TEMP: 105;                                

ONTARIO        SUNNY    105  39  10 VRB6      29.85F HX  99           
6HR MIN TEMP:  95; 6HR MAX TEMP: 107;                                

$$

Return to Home page


Western Regional Climate Center, wrcc@dri.edu